Location: *
(37.5724°S, 58.0067°E)
Time: 11:44:34
(UTC+00:00)

Genesis I - Pass Details

Date: 26 September 2020
Orbit: 500 x 522 km, 64.5° (Epoch: 29 October)

Event Time Altitude Azimuth Distance (km) Brightness Sun altitude
Rises 15:24:43 0° 200° (SSW) 2,660 7.3 -15.8°
Reaches altitude 10° 15:27:12 10° 186° (S) 1,761 6.2 -16.3°
Maximum altitude 15:30:31 25° 129° (SE) 1,065 4.4 -16.9°
Enters shadow 15:30:45 25° 123° (ESE) 1,069 4.4 -16.9°
